Temp
13 13 13 14 14 14 12 14 14 14 15 15 13 12 13 14 14 13 12 12 12 12 10 10 10 11 12 13 14 14 15 15 15 15 14 13 12 11 12 12 12 13 14 14
12 11 13 14 14 14 14 14 14 15 15 14 13 12 13 13 13 14 14 12 12 10 8 9 9 10 11 11 12 12 13 13 13 13 12 12 11 12 11 12 12 12 13 13
12 14 12 13 13 13 13 13 14 14 14 14 12 12 13 14 13 14 13 14 12 11 9 7 8 8 9 10 10 10 11 11 12 12 12 12 12 11 11 11 11 11 11 12
12 13 12 12 12 12 12 13 14 14 13 13 12 11 12 14 13 14 14 12 11 10 7 6 7 7 8 8 9 9 10 11 11 11 11 11 12 11 10 10 10 10 11 11
11 11 11 12 13 13 13 12 13 14 12 12 12 11 11 13 14 14 14 12 10 8 7 6 6 7 7 8 8 9 9 10 10 11 11 11 11 10 9 8 9 9 9 9
11 12 12 12 13 13 12 12 11 10 11 9 11 11 11 13 15 15 12 10 8 6 5 5 6 6 6 7 8 8 8 8 8 9 9 9 9 8 8 8 8 8 8 8
11 12 12 13 12 13 13 12 8 9 10 9 10 10 10 12 13 14 13 8 6 6 5 4 5 5 6 7 7 7 7 7 7 8 8 8 8 7 7 6 6 6 6 6
9 9 11 12 12 12 11 12 9 11 10 10 10 10 13 13 10 9 10 7 6 6 5 5 5 6 6 6 6 6 6 6 7 7 7 6 6 6 6 5 5 5 5 4
9 10 11 12 12 13 12 12 12 9 3 8 10 10 12 12 10 8 8 7 7 6 5 5 6 6 6 6 6 6 6 6 6 6 5 5 5 5 5 4 4 4 3 2
10 10 10 11 12 12 12 11 11 7 8 7 10 10 12 14 13 9 8 8 8 7 7 6 6 6 7 7 6 6 5 5 5 5 4 4 4 3 3 3 3 2 2 1
10 11 10 11 11 12 12 11 12 10 8 9 8 11 10 12 10 10 8 8 8 7 7 6 6 7 7 7 6 5 5 5 4 4 4 3 3 3 2 2 1 1 0 0
10 10 8 12 10 10 12 12 11 9 10 7 8 10 10 11 11 9 8 9 9 8 8 6 7 7 7 6 6 5 5 4 4 3 3 2 2 1 1 1 0 0 -0 -1
10 8 9 9 11 10 11 12 11 10 9 9 9 10 10 10 10 10 9 9 9 11 10 7 7 7 7 7 6 6 5 4 3 3 2 2 1 1 0 -0 -1 -1 -2 -2
11 9 10 9 11 10 10 11 12 12 12 11 11 12 12 11 11 11 11 10 11 10 9 7 6 7 8 8 7 6 5 4 3 2 2 1 0 -0 -1 -2 -2 -2 -3 -3
11 8 9 10 11 10 10 11 10 12 12 12 11 10 11 12 11 11 11 11 11 10 9 8 7 7 8 8 7 6 5 4 3 2 1 0 -1 -2 -2 -3 -3 -3 -4 -4
10 9 9 7 9 9 10 9 10 11 11 11 11 9 11 12 11 11 13 12 9 8 8 7 6 6 7 6 6 5 4 3 2 1 0 -1 -2 -2 -3 -4 -4 -4 -4 -5
9 8 8 9 6 9 8 7 9 9 8 10 10 12 12 12 12 13 13 9 8 8 8 7 6 6 6 6 6 5 4 3 1 0 -1 -1 -2 -3 -4 -4 -5 -5 -5 -6
8 9 6 4 3 8 10 8 10 10 9 10 10 11 11 12 12 10 9 9 8 8 7 6 6 6 6 6 6 5 3 2 0 -1 -1 -2 -3 -4 -5 -5 -5 -6 -6 -6
7 6 3 4 -0 6 8 8 8 9 11 10 10 11 10 9 9 8 7 7 8 7 7 7 7 5 5 4 4 2 1 -1 -2 -2 -3 -3 -4 -5 -5 -6 -6 -6 -6 -7
6 6 5 -7 2 5 8 9 7 9 10 10 10 10 8 7 8 11 7 6 5 7 7 6 5 5 4 4 3 1 -1 -2 -3 -3 -3 -3 -4 -5 -5 -6 -6 -7 -7 -7
7 6 8 -4 0 4 6 6 8 8 10 10 7 8 5 7 9 8 6 5 6 6 5 5 4 4 4 2 1 -1 -2 -3 -2 -3 -3 -4 -5 -5 -6 -6 -7 -7 -8 -9
8 8 7 2 3 7 5 6 10 10 9 9 7 6 5 5 5 7 4 5 3 2 2 2 0 1 0 -0 -1 -3 -4 -3 -4 -4 -5 -6 -6 -6 -7 -7 -8 -8 -8 -9
7 6 5 7 8 8 3 8 6 6 8 8 8 7 5 5 4 3 3 2 2 3 2 1 -0 -0 -1 -1 -2 -3 -3 -4 -5 -6 -6 -7 -7 -7 -7 -8 -8 -9 -9 -9
3 -0 4 6 4 6 6 5 5 5 7 7 6 5 4 6 4 3 2 1 -0 3 1 1 -2 -4 -3 -3 -4 -4 -4 -5 -6 -7 -7 -8 -8 -8 -8 -9 -9 -9 -9 -10
2 2 -0 3 1 2 3 4 5 5 3 4 4 4 4 3 2 1 1 -0 -1 0 -0 -1 -4 -4 -3 -4 -5 -6 -5 -6 -7 -8 -8 -9 -9 -9 -9 -9 -9 -9 -9 -9
-1 1 5 6 3 5 8 3 2 3 4 3 2 0 -2 -1 0 -2 -1 1 1 -1 -2 -4 -4 -4 -4 -5 -6 -7 -7 -7 -8 -9 -10 -10 -10 -10 -10 -10 -10 -10 -10 -11
Height
813 819 821 815 816 820 830 830 831 830 823 825 829 831 820 816 816 817 820 820 817 817 820 823 825 826 825 824 825 826 826 826 826 827 827 827 828 829 829 829 830 830 830 830
820 822 817 816 818 822 824 828 830 826 823 828 829 829 818 815 812 808 807 812 814 818 821 822 824 825 824 825 826 826 826 826 826 826 827 828 829 831 830 831 830 830 830 829
817 813 815 818 824 826 827 831 828 829 828 827 833 828 816 806 805 801 801 802 805 810 814 819 822 824 825 825 826 827 827 827 827 826 827 828 829 830 832 832 831 830 829 829
816 812 818 821 824 826 833 827 824 827 834 842 836 846 822 807 808 799 796 800 803 806 812 817 820 823 825 826 827 828 827 827 827 827 828 829 829 830 830 832 832 830 829 829
817 818 819 821 820 822 828 827 829 828 837 839 841 848 823 809 803 797 794 800 804 808 810 817 821 823 824 826 827 828 828 828 828 828 829 829 829 830 831 833 833 832 831 829
815 813 814 816 817 817 825 830 837 845 845 866 842 842 833 814 801 796 800 805 808 812 816 820 821 823 824 826 827 829 830 830 830 829 829 829 830 831 831 834 833 832 831 832
814 814 813 812 820 819 822 831 871 867 855 861 846 847 831 807 802 799 798 810 814 815 818 821 822 824 825 827 829 830 831 831 831 829 829 830 830 831 832 833 834 833 833 833
826 834 814 810 812 818 826 827 855 851 857 852 847 838 810 801 807 805 803 812 816 819 820 820 821 824 826 829 830 831 831 830 830 831 830 831 831 832 833 834 835 834 834 835
824 818 810 809 808 811 823 825 831 855 892 866 841 827 806 802 810 811 813 815 818 818 820 822 823 824 826 828 829 830 831 830 831 831 832 832 832 834 835 835 836 835 835 837
805 820 813 810 809 811 812 820 834 864 873 875 840 831 812 799 800 812 817 817 817 818 821 821 822 824 825 827 828 829 830 831 831 831 831 832 834 835 836 836 835 834 837 838
800 803 817 812 812 811 815 820 822 833 851 852 856 824 811 804 807 810 817 816 817 818 819 820 820 820 822 825 827 828 830 830 830 831 831 833 834 835 836 836 835 835 837 839
798 805 826 804 813 817 809 812 819 838 838 851 844 827 810 806 803 807 812 814 816 818 818 816 816 818 820 822 824 825 827 828 829 830 830 832 833 834 834 835 834 836 837 839
793 812 816 824 812 814 810 808 811 822 829 830 836 824 810 807 807 809 809 810 811 811 813 813 815 816 816 818 819 821 823 824 826 827 828 829 831 832 833 834 835 836 838 839
784 802 800 811 801 803 813 804 804 807 808 815 814 809 807 809 809 808 808 809 808 809 809 811 812 812 813 813 814 816 817 819 821 823 825 827 829 831 833 834 835 837 838 839
784 805 804 800 797 801 803 798 808 799 800 801 806 812 805 803 805 805 805 805 805 806 807 809 809 808 808 808 809 809 811 814 816 819 822 825 828 830 832 833 835 836 838 839
785 795 799 816 804 807 800 802 799 799 803 804 805 813 801 794 800 803 796 798 806 808 807 805 804 805 806 807 807 807 808 810 814 817 820 823 826 829 831 832 834 836 837 838
787 796 802 802 825 808 810 809 800 798 804 798 802 790 792 794 794 787 789 800 801 802 802 801 800 801 802 803 803 804 805 807 810 813 816 819 822 825 829 832 834 836 838 839
784 789 810 837 841 811 783 789 781 784 789 785 783 782 782 779 780 786 788 787 793 795 796 795 796 797 799 800 800 801 802 804 807 811 813 817 820 824 828 831 833 835 837 839
779 796 827 831 863 808 785 785 787 786 774 775 776 772 777 781 786 785 781 784 785 787 787 789 791 794 795 796 797 798 800 802 804 807 811 814 817 820 824 827 829 833 835 838
787 789 805 890 843 824 778 766 773 774 773 761 765 768 775 786 792 770 775 776 780 782 784 786 788 790 792 793 794 796 798 800 802 805 809 814 816 819 822 825 827 830 833 838
785 795 782 863 845 804 770 770 768 791 765 750 761 762 777 779 767 768 769 773 774 777 780 782 783 785 787 789 791 793 795 795 799 802 806 810 814 817 821 825 827 830 831 836
763 776 784 823 824 786 758 768 758 750 749 750 757 759 765 765 769 768 770 773 776 777 778 778 779 780 783 785 787 789 791 794 797 800 803 808 813 815 819 823 826 828 830 835
770 763 779 767 752 745 754 744 748 748 748 748 749 751 756 762 766 768 770 770 770 772 774 777 777 776 778 780 782 784 785 788 794 797 801 806 811 814 817 820 823 826 829 833
771 774 769 762 750 746 746 747 747 747 744 743 747 751 755 757 760 764 766 767 768 768 768 769 772 771 771 773 776 779 782 785 789 792 796 802 808 812 815 818 821 823 827 830
760 762 775 759 760 753 748 744 740 740 746 746 748 749 751 755 757 759 759 759 759 759 760 762 763 764 764 768 771 775 777 783 787 790 792 798 805 809 812 816 818 822 825 828
755 754 750 745 743 738 730 735 738 743 742 743 747 749 748 750 750 749 749 748 750 750 751 754 755 758 759 763 766 770 774 777 782 786 791 796 801 806 811 815 818 822 825 828
Wind_Speed
2 3 7 10 4 3 6 4 3 3 3 2 6 7 10 9 4 8 8 8 7 8 7 7 5 5 6 5 2 1 4 6 8 5 2 3 1 2 3 3 3 2 2 2
4 5 3 5 4 5 3 3 2 1 2 3 5 10 11 8 7 9 11 9 9 6 6 8 7 6 5 4 4 4 5 6 5 2 4 2 3 3 4 5 5 4 2 2
5 1 7 5 3 5 3 5 3 2 4 2 6 7 6 5 5 5 8 9 7 12 12 8 9 6 5 5 5 6 6 6 6 3 6 7 6 7 5 3 3 4 3 4
3 1 6 4 4 5 3 5 3 2 3 3 3 5 6 5 8 6 6 6 7 8 6 7 11 8 6 6 5 5 6 7 6 5 6 8 5 6 4 3 2 3 3 4
6 5 4 3 4 5 6 4 6 2 3 2 1 2 7 3 7 7 2 2 2 5 9 9 11 10 8 6 5 6 6 6 6 4 4 6 5 4 5 3 1 3 4 5
4 1 4 8 3 7 7 6 7 4 3 2 6 6 4 4 4 4 1 2 5 7 7 9 9 9 7 6 5 4 5 6 6 5 5 5 4 5 4 2 1 2 3 4
2 1 1 3 6 3 3 6 3 3 1 5 2 3 8 8 6 4 4 4 5 6 7 6 7 7 5 4 3 3 2 4 6 7 7 5 3 2 2 1 1 2 2 3
5 3 7 5 5 6 4 5 5 6 4 4 2 5 5 3 4 5 5 8 6 5 5 6 6 5 4 4 3 2 2 3 5 5 6 5 4 3 2 1 1 2 2 3
5 4 0 2 3 6 5 4 4 5 2 2 4 6 8 2 5 5 7 7 6 6 5 5 5 6 7 7 5 3 2 1 2 3 3 4 3 2 2 2 0 1 2 1
6 2 1 1 2 3 5 8 2 2 2 4 4 5 5 3 1 2 5 6 6 3 4 5 8 8 8 8 7 6 5 3 1 0 1 2 1 1 0 1 1 1 2 1
5 3 2 4 4 8 4 3 3 4 4 4 1 5 5 2 4 6 7 6 6 6 6 6 8 9 10 10 10 8 7 5 4 3 2 1 1 1 1 1 1 2 2 2
6 4 3 8 2 2 1 5 5 4 4 3 2 5 3 4 2 7 8 7 4 5 5 6 9 8 10 11 11 11 10 9 7 6 5 4 4 3 2 2 2 3 3 3
7 2 4 2 1 3 4 4 5 4 3 6 5 4 4 1 4 5 8 6 4 2 3 4 5 8 11 13 14 15 15 13 11 10 9 7 6 5 4 4 5 5 5 5
8 3 5 8 4 6 6 8 10 11 8 4 6 2 3 2 4 4 4 5 3 4 4 3 5 10 14 16 18 19 19 17 16 14 12 10 8 7 7 6 6 6 7 7
4 5 4 1 2 2 4 9 10 18 15 10 6 9 9 8 7 6 6 5 4 5 4 5 5 9 11 13 16 19 21 22 20 18 15 12 10 9 9 9 9 9 10 10
1 3 3 2 2 3 5 10 12 14 7 9 3 5 5 8 6 4 5 11 7 8 8 7 6 8 9 10 11 13 18 22 22 20 17 14 13 12 12 12 12 12 13 12
7 5 3 4 3 3 9 8 10 7 6 11 13 15 7 10 13 16 15 8 10 10 8 7 6 6 4 7 10 12 13 17 23 21 19 18 17 16 15 14 13 14 13 12
9 7 2 3 2 5 3 2 8 14 9 15 5 6 10 16 14 6 10 8 8 8 8 6 7 6 5 5 6 6 9 15 22 24 23 21 19 18 17 17 16 15 13 14
5 6 3 4 4 6 4 6 8 9 16 14 13 14 5 3 3 6 8 8 10 8 10 8 7 6 6 6 5 6 10 15 21 25 24 23 22 22 21 20 18 16 17 16
5 4 4 3 5 9 6 4 8 6 11 9 15 14 10 7 3 14 6 7 9 12 10 9 8 7 7 6 7 9 12 16 21 23 24 23 23 22 22 21 20 19 16 14
6 2 10 3 3 8 9 7 7 6 6 4 10 10 8 7 9 2 6 5 8 11 12 11 12 12 11 10 10 13 15 20 20 22 23 23 22 21 20 20 20 19 17 17
8 9 5 3 1 12 9 4 13 6 3 5 6 7 9 8 5 4 6 5 7 10 12 16 15 15 12 13 14 16 18 15 18 21 22 22 21 21 21 22 22 21 20 18
4 7 6 10 9 0 7 3 7 3 6 6 6 6 8 7 7 8 7 8 10 13 16 16 18 15 15 16 17 18 17 18 22 23 23 22 22 22 23 24 24 22 20 19
4 2 3 3 3 6 5 5 3 8 9 2 4 6 6 6 7 7 7 7 7 17 21 22 20 21 21 20 21 21 19 23 26 26 25 24 24 23 23 24 24 23 22 20
5 7 6 7 1 4 4 8 10 12 2 3 3 6 8 7 8 8 6 8 16 22 20 23 27 26 26 22 24 22 22 26 27 26 26 26 25 25 24 23 23 22 19 18
5 7 5 6 7 6 6 5 4 7 9 8 8 5 6 8 10 6 9 17 17 19 19 22 24 24 24 23 25 24 25 28 29 26 25 26 25 25 25 22 17 13 12 13
Wind_Direction
56 134 194 198 163 129 131 129 182 236 277 190 237 261 262 274 286 266 247 237 231 209 158 157 156 147 127 111 96 335 321 323 323 320 241 198 161 115 110 105 129 158 176 208
63 234 193 142 121 110 116 128 234 266 16 172 322 280 270 240 241 222 234 226 219 165 165 164 166 147 124 104 60 30 15 6 4 17 117 85 167 186 133 113 104 94 75 31
162 215 161 145 151 139 146 157 174 144 354 47 340 285 275 284 246 248 242 234 192 190 178 170 161 142 117 91 63 45 34 28 32 88 146 159 153 133 133 129 95 77 57 29
213 256 147 132 171 131 194 208 148 122 66 244 36 288 303 290 295 259 253 243 206 173 133 140 154 143 128 96 75 60 48 43 49 118 157 171 182 175 189 167 95 56 41 11
235 156 125 126 187 142 224 148 150 112 99 33 300 290 271 317 285 280 195 107 96 149 147 150 151 142 126 108 82 64 57 57 63 83 182 201 188 179 160 167 243 4 1 4
187 168 159 187 156 156 153 84 51 50 69 318 226 189 274 245 245 322 341 130 119 117 111 118 127 132 124 115 99 80 67 68 72 83 99 113 131 147 158 204 271 12 6 1
136 204 299 142 93 58 128 106 24 352 234 230 329 196 248 266 290 302 248 152 122 122 127 134 142 143 141 138 126 104 89 74 68 66 69 77 98 131 169 208 338 2 7 21
145 284 177 190 180 169 174 143 155 203 196 263 104 238 248 192 14 356 98 123 115 125 146 158 157 161 178 190 195 175 127 72 57 55 61 67 72 87 103 97 61 42 33 38
133 267 3 146 148 138 177 177 150 103 29 47 223 283 297 128 39 53 106 119 153 173 177 184 180 196 201 207 213 213 212 98 67 61 63 63 62 56 71 83 104 58 47 45
196 90 342 67 103 33 154 151 108 5 167 258 284 274 245 6 74 85 121 162 188 179 191 204 208 218 221 223 224 225 221 221 207 144 54 48 65 96 99 132 118 99 104 83
143 114 149 120 227 177 146 174 140 133 143 177 265 258 218 269 272 182 189 194 189 196 208 217 224 223 224 226 227 229 228 233 236 240 240 221 227 229 216 191 134 120 124 103
200 133 152 191 181 285 286 180 147 133 204 232 159 274 2 303 331 153 169 185 190 215 219 218 227 230 230 234 235 236 235 235 230 227 223 223 226 221 211 202 169 159 154 132
174 182 112 28 309 347 225 191 166 120 104 196 152 259 341 45 102 158 154 171 172 218 248 263 277 266 260 252 242 238 233 230 227 224 222 220 220 218 209 198 182 166 155 133
129 148 162 187 199 139 192 204 202 205 233 170 215 214 284 259 145 160 172 168 188 227 246 262 274 269 275 271 259 246 237 229 227 223 220 217 216 209 199 187 173 165 155 141
136 174 158 180 346 176 207 193 192 218 227 218 198 198 207 203 210 202 216 228 223 282 299 262 261 270 272 269 261 248 240 230 225 220 215 211 205 199 191 184 177 168 159 145
179 123 116 338 37 2 254 218 216 225 221 228 280 268 236 231 118 189 263 280 258 256 247 243 243 256 274 284 281 261 242 228 219 214 209 204 199 193 189 182 176 171 165 156
145 131 120 217 349 53 283 195 198 199 186 202 226 231 210 232 229 219 231 204 222 228 235 231 229 231 248 294 294 270 250 231 216 211 206 201 196 191 187 182 176 171 166 160
144 127 110 153 49 232 255 313 206 202 203 211 218 208 199 221 237 220 214 208 207 222 226 221 215 220 263 294 291 261 228 217 211 207 203 199 193 189 185 182 180 176 174 167
106 125 115 152 191 302 272 194 169 175 240 217 213 228 204 147 75 272 213 201 217 212 214 201 208 232 264 280 271 227 211 209 206 204 201 198 194 188 186 186 183 181 174 171
98 83 132 117 153 214 246 208 150 104 259 223 203 225 211 129 220 253 179 199 212 205 195 199 218 242 253 257 242 222 210 205 204 204 202 200 196 195 192 191 185 181 178 174
159 112 196 174 216 282 235 177 148 150 242 196 175 208 150 184 213 208 158 180 192 194 200 209 222 231 238 234 224 218 215 214 214 203 199 197 198 196 196 189 185 180 175 173
165 164 183 109 135 262 161 86 174 199 191 143 183 199 190 213 157 211 190 172 179 198 210 220 222 228 225 219 217 215 217 218 203 195 192 193 194 193 191 187 183 182 180 175
208 188 177 191 210 197 196 185 208 184 161 212 197 194 195 194 205 193 218 234 227 228 236 236 230 228 227 223 222 220 222 203 194 189 188 189 191 192 190 189 183 177 182 177
244 197 198 103 240 210 221 250 248 208 230 191 113 162 165 199 207 206 215 231 239 246 236 231 219 223 228 221 220 225 214 197 191 186 184 186 190 190 189 188 186 184 184 184
189 139 168 266 195 328 257 237 230 242 129 97 169 205 217 203 230 219 234 238 232 237 229 220 217 224 231 221 217 214 206 197 192 189 186 185 189 186 184 187 187 191 196 201
184 177 175 228 191 177 255 221 170 230 245 224 205 241 230 197 232 200 237 242 242 242 230 216 223 231 233 219 214 208 203 197 194 182 181 181 178 181 184 177 169 185 190 188